• In United Kingdom
  • List of Countries
  • For 7 days
  • Water Temperature
  • Satellite Maps
  • Weather Map
  • Weather Widgets
  • user-avatar
    Login

    Hourly Weather Hermosillo

    Today, 17 January, Wednesday

    Time Temperature Precipitation Wind Pressure Humidity
    00:00 +20°C° 0 mm 1 mps 743 mmHg 33%
    01:00 +20°C° 0 mm 1 mps 743 mmHg 33%
    02:00 +19°C° 0 mm 1 mps 743 mmHg 33%
    03:00 +19°C° 0 mm 1 mps 743 mmHg 33%
    04:00 +19°C° 0 mm 1 mps 743 mmHg 33%
    05:00 +18°C° 0 mm 2 mps 743 mmHg 33%
    06:00 +18°C° 0 mm 2 mps 744 mmHg 32%
    07:00 +18°C° 0 mm 2 mps 744 mmHg 31%
    08:00 +18°C° 0 mm 2 mps 744 mmHg 31%
    09:00 +20°C° 0 mm 2 mps 744 mmHg 26%
    10:00 +23°C° 0 mm 2 mps 745 mmHg 22%
    11:00 +25°C° 0 mm 2 mps 745 mmHg 18%
    12:00 +26°C° 0 mm 2 mps 744 mmHg 17%
    13:00 +27°C° 0 mm 1 mps 744 mmHg 16%
    14:00 +28°C° 0 mm 1 mps 744 mmHg 16%
    15:00 +28°C° 0 mm 2 mps 744 mmHg 16%
    16:00 +28°C° 0 mm 2 mps 744 mmHg 17%
    17:00 +28°C° 0 mm 3 mps 743 mmHg 18%
    18:00 +26°C° 0 mm 3 mps 744 mmHg 22%
    19:00 +25°C° 0 mm 3 mps 744 mmHg 25%
    20:00 +22°C° 0 mm 3 mps 744 mmHg 29%
    21:00 +21°C° 0 mm 2 mps 744 mmHg 32%
    22:00 +20°C° 0 mm 2 mps 744 mmHg 34%
    23:00 +20°C° 0 mm 1 mps 744 mmHg 37%

    Tomorrow, 18 January, Thursday

    Time Temperature Precipitation Wind Pressure Humidity
    00:00 +20°C° 0 mm 1 mps 744 mmHg 37%
    01:00 +19°C° 0 mm 1 mps 744 mmHg 37%
    02:00 +19°C° 0 mm 1 mps 744 mmHg 38%
    03:00 +19°C° 0 mm 1 mps 744 mmHg 37%
    04:00 +18°C° 0 mm 1 mps 744 mmHg 37%
    05:00 +18°C° 0 mm 1 mps 743 mmHg 36%
    06:00 +17°C° 0 mm 2 mps 744 mmHg 35%
    07:00 +17°C° 0 mm 2 mps 744 mmHg 33%
    08:00 +17°C° 0 mm 2 mps 744 mmHg 31%
    09:00 +20°C° 0 mm 2 mps 745 mmHg 27%
    10:00 +23°C° 0 mm 2 mps 745 mmHg 22%
    11:00 +25°C° 0 mm 2 mps 745 mmHg 17%
    12:00 +26°C° 0 mm 2 mps 744 mmHg 16%
    13:00 +27°C° 0 mm 1 mps 744 mmHg 15%
    14:00 +28°C° 0 mm 1 mps 743 mmHg 15%
    15:00 +28°C° 0 mm 1 mps 743 mmHg 15%
    16:00 +28°C° 0 mm 2 mps 743 mmHg 16%
    17:00 +28°C° 0 mm 2 mps 743 mmHg 16%
    18:00 +26°C° 0 mm 2 mps 743 mmHg 20%
    19:00 +24°C° 0 mm 2 mps 743 mmHg 23%
    20:00 +21°C° 0 mm 2 mps 743 mmHg 27%
    21:00 +21°C° 0 mm 2 mps 743 mmHg 29%
    22:00 +21°C° 0 mm 1 mps 744 mmHg 32%
    23:00 +20°C° 0 mm 1 mps 744 mmHg 34%

    Day after tomorrow, 19 January, Friday

    Time Temperature Precipitation Wind Pressure Humidity
    00:00 +19°C° 0 mm 1 mps 743 mmHg 35%
    01:00 +17°C° 0 mm 0 mps 743 mmHg 37%
    02:00 +16°C° 0 mm 0 mps 743 mmHg 38%
    03:00 +16°C° 0 mm 0 mps 743 mmHg 38%
    04:00 +16°C° 0 mm 1 mps 742 mmHg 38%
    05:00 +16°C° 0 mm 1 mps 742 mmHg 37%
    06:00 +18°C° 0 mm 1 mps 743 mmHg 35%
    07:00 +18°C° 0 mm 1 mps 743 mmHg 33%
    08:00 +17°C° 0 mm 2 mps 743 mmHg 31%
    09:00 +20°C° 0 mm 2 mps 744 mmHg 27%
    10:00 +23°C° 0 mm 2 mps 744 mmHg 22%
    11:00 +26°C° 0 mm 3 mps 744 mmHg 18%
    12:00 +27°C° 0 mm 3 mps 743 mmHg 17%
    13:00 +27°C° 0 mm 4 mps 742 mmHg 16%
    14:00 +28°C° 0 mm 4 mps 741 mmHg 16%
    15:00 +28°C° 0 mm 4 mps 741 mmHg 17%
    16:00 +27°C° 0 mm 4 mps 741 mmHg 18%
    17:00 +27°C° 0 mm 5 mps 741 mmHg 19%
    18:00 +25°C° 0 mm 4 mps 741 mmHg 23%
    19:00 +24°C° 0 mm 3 mps 742 mmHg 26%
    20:00 +21°C° 0 mm 2 mps 742 mmHg 30%
    21:00 +20°C° 0 mm 2 mps 742 mmHg 31%
    22:00 +20°C° 0 mm 2 mps 742 mmHg 32%
    23:00 +19°C° 0 mm 2 mps 742 mmHg 34%

    20 January, Saturday

    Time Temperature Precipitation Wind Pressure Humidity
    00:00 +19°C° 0 mm 2 mps 742 mmHg 35%
    01:00 +18°C° 0 mm 2 mps 741 mmHg 37%
    02:00 +18°C° 0 mm 2 mps 741 mmHg 39%
    03:00 +17°C° 0 mm 2 mps 741 mmHg 41%
    04:00 +17°C° 0 mm 2 mps 741 mmHg 43%
    05:00 +16°C° 0 mm 2 mps 741 mmHg 45%
    06:00 +16°C° 0 mm 2 mps 741 mmHg 47%
    07:00 +17°C° 0 mm 2 mps 742 mmHg 49%
    08:00 +17°C° 0 mm 3 mps 742 mmHg 51%
    09:00 +18°C° 0 mm 3 mps 742 mmHg 50%
    10:00 +19°C° 0 mm 4 mps 743 mmHg 50%
    11:00 +20°C° 0 mm 5 mps 743 mmHg 49%
    12:00 +20°C° 0 mm 6 mps 742 mmHg 45%
    13:00 +21°C° 0 mm 6 mps 742 mmHg 41%
    14:00 +21°C° 0 mm 7 mps 741 mmHg 37%
    15:00 +21°C° 0 mm 7 mps 741 mmHg 35%
    16:00 +20°C° 0 mm 7 mps 741 mmHg 32%
    17:00 +18°C° 0 mm 7 mps 741 mmHg 30%
    18:00 +17°C° 0 mm 6 mps 742 mmHg 31%
    19:00 +16°C° 0 mm 5 mps 742 mmHg 32%
    20:00 +15°C° 0 mm 4 mps 743 mmHg 32%
    21:00 +15°C° 0 mm 4 mps 744 mmHg 33%
    22:00 +14°C° 0 mm 4 mps 744 mmHg 34%
    23:00 +13°C° 0 mm 4 mps 745 mmHg 35%

    21 January, Sunday

    Time Temperature Precipitation Wind Pressure Humidity
    00:00 +13°C° 0 mm 3 mps 745 mmHg 35%
    01:00 +12°C° 0 mm 3 mps 745 mmHg 36%
    02:00 +13°C° 0 mm 2 mps 745 mmHg 36%
    03:00 +11°C° 0 mm 3 mps 746 mmHg 37%
    04:00 +11°C° 0 mm 3 mps 746 mmHg 37%
    05:00 +11°C° 0 mm 3 mps 746 mmHg 37%
    06:00 +10°C° 0 mm 3 mps 747 mmHg 37%
    07:00 +10°C° 0 mm 3 mps 747 mmHg 36%
    08:00 +10°C° 0 mm 3 mps 748 mmHg 35%
    09:00 +12°C° 0 mm 4 mps 748 mmHg 28%
    10:00 +15°C° 0 mm 5 mps 748 mmHg 21%
    11:00 +17°C° 0 mm 6 mps 748 mmHg 15%
    12:00 +17°C° 0 mm 6 mps 747 mmHg 13%
    13:00 +19°C° 0 mm 6 mps 747 mmHg 12%
    14:00 +20°C° 0 mm 6 mps 746 mmHg 10%
    15:00 +20°C° 0 mm 6 mps 746 mmHg 10%
    16:00 +20°C° 0 mm 6 mps 746 mmHg 10%
    17:00 +20°C° 0 mm 6 mps 745 mmHg 11%
    18:00 +17°C° 0 mm 6 mps 746 mmHg 11%
    19:00 +16°C° 0 mm 5 mps 746 mmHg 12%
    20:00 +15°C° 0 mm 4 mps 746 mmHg 13%
    21:00 +14°C° 0 mm 4 mps 746 mmHg 13%
    22:00 +14°C° 0 mm 4 mps 746 mmHg 13%
    23:00 +13°C° 0 mm 4 mps 746 mmHg 14%

    22 January, Monday

    Time Temperature Precipitation Wind Pressure Humidity
    00:00 +13°C° 0 mm 4 mps 746 mmHg 14%
    01:00 +12°C° 0 mm 4 mps 746 mmHg 15%
    02:00 +12°C° 0 mm 4 mps 745 mmHg 15%
    03:00 +11°C° 0 mm 4 mps 745 mmHg 15%
    04:00 +11°C° 0 mm 4 mps 745 mmHg 15%
    05:00 +11°C° 0 mm 4 mps 745 mmHg 15%
    06:00 +11°C° 0 mm 4 mps 745 mmHg 16%
    07:00 +11°C° 0 mm 4 mps 745 mmHg 16%
    08:00 +11°C° 0 mm 4 mps 745 mmHg 16%
    09:00 +13°C° 0 mm 3 mps 745 mmHg 14%
    10:00 +17°C° 0 mm 3 mps 745 mmHg 12%
    11:00 +19°C° 0 mm 3 mps 744 mmHg 10%
    12:00 +21°C° 0 mm 3 mps 743 mmHg 9%
    13:00 +22°C° 0 mm 3 mps 743 mmHg 8%
    14:00 +24°C° 0 mm 3 mps 742 mmHg 7%
    15:00 +24°C° 0 mm 3 mps 742 mmHg 7%
    16:00 +24°C° 0 mm 3 mps 741 mmHg 8%
    17:00 +24°C° 0 mm 3 mps 741 mmHg 8%
    18:00 +22°C° 0 mm 4 mps 741 mmHg 10%
    19:00 +20°C° 0 mm 4 mps 741 mmHg 12%
    20:00 +18°C° 0 mm 4 mps 741 mmHg 13%
    21:00 +17°C° 0 mm 3 mps 741 mmHg 15%
    22:00 +16°C° 0 mm 3 mps 741 mmHg 17%
    23:00 +14°C° 0 mm 3 mps 741 mmHg 19%
    Show more